Location: Newark
(45.5000°N, 11.4167°E)
Time: 22:19:35
(UTC+00:00)

Vanguard 2 - Pass Details

Date: 25 August 2019
Orbit: 554 x 2937 km, 32.9° (Epoch: 22 September)

Event Time Altitude Azimuth Distance (km) Brightness Sun altitude
Rises 14:30:08 0° 258° (WSW) 3,844 12.1 36.1°
Reaches altitude 10° 14:32:41 10° 248° (WSW) 3,153 12.1 35.7°
Maximum altitude 14:39:50 34° 187° (S) 2,469 10.8 34.6°
Drops below altitude 10° 14:50:46 10° 129° (SE) 4,855 11.4 32.8°
Sets 14:55:49 0° 122° (ESE) 6,208 11.8 32.0°
